AO-07 1 07530U 74089B 25259.26564685 -.00000033 00000-0 82690-4 0 9994 2 07530 101.9985 264.5938 0011934 294.9487 77.6997 12.53691520326198 UO-11 1 14781U 84021B 25259.15039199 .00001358 00000-0 14768-3 0 9992 2 14781 97.7660 223.6387 0008322 22.6517 337.5066 14.89670710216313 AO-27 1 22825U 93061C 25258.74927844 .00000078 00000-0 46998-4 0 9990 2 22825 98.7273 320.7514 0008444 177.8928 182.2291 14.30828757667752 FO-29 1 24278U 96046B 25259.16130248 -.00000027 00000-0 58275-5 0 9998 2 24278 98.5585 140.0146 0350914 87.1525 276.9714 13.53253618436108 NOAA-15 1 25338U 98030A 25259.25578908 .00000130 00000-0 71159-4 0 9999 2 25338 98.5320 281.9964 0011397 72.6354 287.6073 14.27016543422225 GO-32 1 25397U 98043D 25258.89867966 .00000076 00000-0 52896-4 0 9998 2 25397 98.9817 240.1186 0000451 339.1208 20.9952 14.24338713412288 ISS 1 25544U 98067A 25259.15672217 .00010925 00000-0 19686-3 0 9994 2 25544 51.6329 216.1838 0004347 344.8645 15.2213 15.50326031529274 NO-44 1 26931U 01043C 25259.21145584 .00000189 00000-0 10162-3 0 9993 2 26931 67.0493 232.8149 0007066 275.1919 84.8376 14.31778651251225 SO-50 1 27607U 02058C 25259.09026277 .00001561 00000-0 20800-3 0 9999 2 27607 64.5509 256.3912 0066372 313.3358 46.2226 14.81887587223827 CO-55 1 27844U 03031E 25259.25879999 .00000302 00000-0 15030-3 0 9990 2 27844 98.6791 266.2742 0008436 260.3027 99.7199 14.24068001152689 CO-57 1 27848U 03031J 25258.97244275 .00000238 00000-0 12424-3 0 9997 2 27848 98.6821 265.9222 0008355 281.3587 78.6653 14.23392329152368 RS-22 1 27939U 03042A 25259.28392480 .00001135 00000-0 18666-3 0 9998 2 27939 98.3368 71.1874 0012407 60.3731 63.7968 14.72586873175228 CO-58 1 28895U 05043F 25259.13884268 .00001586 00000-0 26454-3 0 9991 2 28895 98.2637 44.8161 0014291 359.3179 0.8005 14.71343018 61436 CO-65 1 32785U 08021C 25259.21381770 .00006757 00000-0 47494-3 0 9994 2 32785 97.7952 231.2226 0008102 232.3904 127.6588 15.05412915943914 CO-66 1 32791U 08021J 25259.20165040 .00016095 00000-0 72551-3 0 9998 2 32791 97.7371 241.6462 0004432 147.5780 212.5728 15.21114403945476 RS-30 1 32953U 08025A 25259.23015979 .00000017 00000-0 48173-4 0 9991 2 32953 82.5069 165.8441 0018575 187.4182 172.6626 12.43168081785655 NOAA-19 1 33591U 09005A 25259.24056085 .00000087 00000-0 70273-4 0 9996 2 33591 98.9885 324.4593 0014813 85.9786 274.3079 14.13407119855786 SRMSAT 1 37841U 11058D 25259.21989520 .00000429 00000-0 89199-4 0 9992 2 37841 19.9718 277.6268 0011963 70.2486 1.9837 14.11464579719068 ZACUBE-1 1 39417U 13066B 25259.10765709 .00006040 00000-0 51188-3 0 9994 2 39417 97.7904 215.6982 0045868 83.0034 277.6402 14.97522193639654 Delfi-N3xt 1 39428U 13066N 25258.74749542 .00009475 00000-0 93369-3 0 9994 2 39428 97.8282 175.3435 0084300 38.0845 322.6290 14.89579424633688 GOMX-1 1 39430U 13066Q 25259.26407314 .00001864 00000-0 29412-3 0 9995 2 39430 97.6719 111.8456 0130377 236.2010 122.6726 14.68001782629708 LO-74 1 39440U 13066AA 25259.10963881 .00003315 00000-0 33265-3 0 9999 2 39440 97.8550 203.0607 0060027 213.3921 146.3505 14.90674332636110 AO-73 1 39444U 13066AE 25259.15053056 .00009132 00000-0 65800-3 0 9995 2 39444 97.7925 221.5687 0043338 56.0716 304.4618 15.03636049638394 DTUSAT-2 1 40030U 14033W 25259.17034643 .00007828 00000-0 49118-3 0 9990 2 40030 98.0654 235.8953 0011093 88.0606 272.1892 15.09555010611266 EO-80 1 40032U 14033Y 25259.18545451 .00008427 00000-0 52725-3 0 9991 2 40032 98.0540 235.4286 0009678 40.6051 319.5897 15.09649381611245 LILACSAT-2 1 40908U 15049K 25259.31301684 .00015119 00000-0 36577-3 0 9997 2 40908 97.5033 282.1758 0009758 154.0083 206.1655 15.41178912553426 IO-86 1 40931U 15052B 25151.18580175 .00001241 00000-0 78118-4 0 9996 2 40931 6.0006 24.0987 0012733 338.8432 21.1169 14.78805930523159 Horyu-4 1 41340U 16012D 25259.19288891 .00033943 00000-0 77869-3 0 9993 2 41340 30.9946 186.7462 0005987 355.4003 4.6588 15.41476440527997 Lapan A3 1 41603U 16040E 25259.31217563 .00004542 00000-0 15621-3 0 9999 2 41603 97.1423 260.1074 0008764 278.2195 81.8052 15.30531107512885 CAS-2T 1 41847U 16066G 25259.24179786 .00001199 00000-0 18024-3 0 9998 2 41847 98.4128 332.8262 0344238 239.8491 116.8177 14.43717387465252 CAS-4B 1 42759U 17034B 25259.01076353 .00301032 00000-0 12476-2 0 9991 2 42759 43.0004 88.4275 0023971 271.9686 87.8442 15.83781860458080 CAS-4A 1 42761U 17034D 25258.98223774 .00281054 36043-4 10110-2 0 9994 2 42761 43.0037 84.0280 0024722 278.1389 81.6681 15.87441148458118 TechnoSat 1 42829U 17042E 25259.24159649 .00003208 00000-0 24624-3 0 9996 2 42829 97.4014 63.3177 0016182 313.9410 46.0479 15.02355561445532 AO-91 1 43017U 17073E 25259.09530018 .00009211 00000-0 45795-3 0 9998 2 43017 97.5100 127.4004 0167680 189.8954 169.8960 15.06311751424031 S-Net D 1 43186U 18014G 25258.95785822 .00005752 00000-0 33150-3 0 9998 2 43186 97.5501 160.8579 0007105 240.9724 119.0795 15.12764377417241 S-Net B 1 43187U 18014H 25259.16300373 .00005768 00000-0 33252-3 0 9997 2 43187 97.5507 161.0374 0007878 234.9129 125.1364 15.12745918417276 S-Net A 1 43188U 18014J 25258.69331027 .00005625 00000-0 32421-3 0 9994 2 43188 97.5514 160.7358 0007741 237.6612 122.3870 15.12766849417209 S-Net C 1 43189U 18014K 25259.23179233 .00005567 00000-0 32105-3 0 9999 2 43189 97.5530 161.2998 0009367 227.6354 132.4085 15.12742181415832 Ten-Koh 1 43677U 18084G 25259.07242563 .00002268 00000-0 18268-3 0 9996 2 43677 98.0809 75.2343 0005890 292.5514 67.5085 15.01018217375010 PO-101 1 43678U 18084H 25259.27958097 .00001732 00000-0 14912-3 0 9992 2 43678 98.1086 79.2362 0008315 325.7588 34.3096 14.98761043375166 QO-100 1 43700U 18090A 25259.23199301 .00000126 00000-0 00000-0 0 9992 2 43700 0.0190 240.1772 0001417 336.8809 247.7112 1.00271665 24939 MinXSS-2 1 43758U 18099A 25259.07728095 .00022585 00000-0 80591-3 0 9993 2 43758 97.4925 325.5810 0011917 163.5786 196.5842 15.28819450372004 AO-95 1 43770U 18099N 25259.12921253 .00010987 00000-0 52795-3 0 9992 2 43770 97.4819 316.1823 0009431 221.6502 138.4015 15.18961439371505 SNUSat 2 1 43782U 18099AA 25259.13520306 .00007915 00000-0 41477-3 0 9992 2 43782 97.4504 312.1155 0012343 165.1007 195.0592 15.15990256371427 SnugLite 1 43784U 18099AC 25259.13755120 .00011266 00000-0 53616-3 0 9990 2 43784 97.4317 311.8989 0004289 151.0101 209.1372 15.19319026371596 ITASat 1 1 43786U 18099AE 25259.12320468 .00006751 00000-0 37334-3 0 9996 2 43786 97.4472 311.3119 0013058 219.8321 140.1953 15.14125074371368 EAGLET 1 1 43790U 18099AJ 25259.12756263 .00004036 00000-0 25301-3 0 9992 2 43790 97.4669 310.9242 0011239 203.4740 156.5978 15.09844768370938 ESEO 1 43792U 18099AL 25259.08157676 .00002162 00000-0 16502-3 0 9993 2 43792 97.4365 302.7975 0012208 184.0690 176.0438 15.02946628370614 JO-97 1 43803U 18099AX 25259.14771880 .00014602 00000-0 62209-3 0 9999 2 43803 97.4566 317.4304 0008232 151.4853 208.6836 15.23035069371762 Suomi 100 1 43804U 18099AY 25259.13387271 .00011999 00000-0 55537-3 0 9998 2 43804 97.4630 316.4086 0012766 158.4653 201.7122 15.20202656371669 ISAT 1 43879U 18111D 25259.21008514 .00027506 00000-0 83862-3 0 9997 2 43879 97.5869 175.9956 0007218 185.4323 174.6842 15.33900043368796 UWE-4 1 43880U 18111E 25259.21468325 .00020431 00000-0 72861-3 0 9996 2 43880 97.5815 173.7262 0009501 211.0714 148.9964 15.28887370368680 Sparrow 1 43881U 18111F 25259.23557863 .00030116 00000-0 87458-3 0 9994 2 43881 97.6036 179.3122 0003731 223.3606 136.7344 15.35437170368908 Prox-1 1 44339U 19036A 25258.99942092 .00014438 00000-0 17455-2 0 9992 2 44339 23.9954 134.3991 0006825 112.7064 247.4156 14.81961457332620 Taurus 1 1 44530U 19059C 25259.32769536 .00008292 00000-0 14857-2 0 9992 2 44530 98.6170 43.5428 0009603 91.8546 268.3757 14.67037778318411 Duchifat 3 1 44854U 19089C 25258.86544939 .00097489 00000-0 12944-2 0 9991 2 44854 36.9378 86.1581 0006987 2.2974 357.7817 15.56975495318282 TO-108 1 44881U 19093C 25259.29527146 .00000872 00000-0 10633-3 0 9999 2 44881 97.7852 332.8559 0012301 267.0593 92.9215 14.85791274310739 FloripaSat 1 1 44885U 19093G 25259.27908458 .00006549 00000-0 53763-3 0 9998 2 44885 97.8166 347.1341 0008331 233.7394 126.3060 14.99521252311538 RS-44 1 44909U 19096E 25259.14030800 .00000013 00000-0 15888-6 0 9990 2 44909 82.5252 161.8139 0218521 65.2034 297.1627 12.79743492267298 UPMSat 2 1 46276U 20061E 25259.17151649 .00273795 29657-4 88274-3 0 9999 2 46276 97.2291 338.0266 0003589 221.0058 139.0947 15.90876451281008 SALSAT 1 46495U 20068K 25259.21038398 .00008514 00000-0 35276-3 0 9995 2 46495 97.8708 241.9403 0011337 168.7954 191.3537 15.24120569273542 TUBIN 1 48900U 21059X 25259.32852544 .00072497 00000-0 58616-3 0 9992 2 48900 97.6771 77.2904 0002999 219.2266 140.8779 15.70602770235489 LEDSAT 1 49069U 21073D 25258.80660843 .00269237 00000-0 13122-2 0 9998 2 49069 97.3772 345.5742 0001808 86.8440 273.3035 15.81651353226834 CUTE 1 49263U 21088D 25258.73990825 .00028616 00000-0 48186-3 0 9991 2 49263 97.4424 338.1126 0005602 220.1880 139.8959 15.51658467219626 TeikyoSat 4 1 49396U 21102B 25259.03339275 .00002040 00000-0 13618-3 0 9990 2 49396 97.4031 293.8923 0013289 149.4706 210.7299 15.08035849211385 Z-Sat 1 49399U 21102E 25259.24410059 .00005133 00000-0 27553-3 0 9995 2 49399 97.3727 297.8214 0019405 119.6295 240.6873 15.15200490211917 KOSEN 1 1 49402U 21102H 25259.03272685 .00007630 00000-0 34007-3 0 9994 2 49402 97.3622 301.8011 0017216 94.8682 265.4520 15.21565527212253 HO-113 1 50466U 21131B 25259.30036295 .00000548 00000-0 18439-3 0 9995 2 50466 98.5081 348.1653 0004089 184.6393 175.4759 14.40924404195666 SNUGLITE 2 1 52899U 22065F 25259.16056422 .00001209 00000-0 24272-3 0 9999 2 52899 98.1829 40.2627 0008040 156.5602 203.5968 14.63444499170908 UmKA 1 (RS40S) 1 57172U 23091G 25259.22853393 .00007066 00000-0 36596-3 0 9996 2 57172 97.5487 314.1114 0013700 359.8555 0.2672 15.16438047122427 CubeBel-2 (EU11S) 1 57175U 23091K 25259.24388098 .00012185 00000-0 54971-3 0 9991 2 57175 97.5483 315.9178 0011311 6.1636 353.9736 15.21100474122541 ENSO 1 58470U 23185J 25259.31393105 .00142501 00000-0 11503-2 0 9996 2 58470 97.3618 338.4146 0003405 96.5638 263.6013 15.70418892100443 SONATE-2 1 59112U 24043Q 25259.11228339 .00024799 00000-0 63963-3 0 9994 2 59112 97.5247 32.5539 0010986 121.4459 238.7862 15.39107654 85472 MO-122 1 60209U 24125G 25259.03271707 .00024773 00000-0 62530-3 0 9993 2 60209 97.2681 109.7206 0018380 139.0527 221.2103 15.39650889 67080 GRBBeta 1 60237U 24128C 25258.99885995 .00004649 00000-0 34314-3 0 9990 2 60237 61.9902 96.2014 0056771 78.8030 281.9435 15.03471272 64993 Curium One 1 60242U 24128H 25259.25397414 .00009385 00000-0 62185-3 0 9999 2 60242 61.9800 92.0144 0056591 75.6516 285.0850 15.06577402 65091 ROBUSTA-3A 1 60243U 24128J 25258.95718678 .00008153 00000-0 55066-3 0 9997 2 60243 61.9873 94.2303 0056076 73.0593 287.6636 15.06033393 65038 CatSat 1 60246U 24125J 25259.02516259 .00024811 00000-0 75080-3 0 9994 2 60246 97.2495 107.7603 0041442 102.7630 257.8249 15.33311206 65052 HYPERVIEW-1G (RS66S) 1 61772U 24199AP 25259.22200266 .00028763 00000-0 72760-3 0 9992 2 61772 97.3370 128.0591 0011972 187.9704 172.1354 15.39657905 92112 AO-123 1 61781U 24199AY 25259.20810653 .00008517 00000-0 29801-3 0 9990 2 61781 97.3392 125.7084 0014574 201.3409 158.7225 15.29661410 91954 ZIMSAT 2 1 61783U 24199BA 25259.22881151 .00063111 00000-0 11669-2 0 9998 2 61783 97.3323 129.6547 0011259 177.4631 182.6679 15.48774339 95379 HADES-R (SO-124) 1 62690U 25009CK 25258.75319976 .00064710 00000-0 17851-2 0 9990 2 62690 97.4018 339.6115 0002933 129.6914 230.4589 15.36859994 37180 HYDRA-T 1 62692U 25009CM 25257.47980639 .00040590 00000-0 11128-2 0 9991 2 62692 97.4012 338.4147 0002685 129.7510 230.3972 15.37176149 36993 JINJUSat 1B 1 63210U 25052A 25258.64680448 .00015509 00000-0 66539-3 0 9990 2 63210 97.4268 151.5883 0003934 14.0071 346.1274 15.22805538 28166 NUSHSAT 1 1 63211U 25052B 25259.14550899 .00017271 00000-0 72955-3 0 9990 2 63211 97.4253 152.1187 0004126 18.5309 341.6077 15.23310713 28249 TEVEL2-4 1 63213U 25052D 25258.98427656 .00017384 00000-0 74339-3 0 9990 2 63213 97.4170 151.6774 0004113 36.8989 323.2530 15.22891055 28217 TEVEL2-5 1 63214U 25052E 25258.46096060 .00016505 00000-0 70716-3 0 9994 2 63214 97.4173 151.1555 0004129 38.5259 321.6272 15.22837131 28130 TEVEL2-6 1 63215U 25052F 25258.66280422 .00016505 00000-0 70787-3 0 9992 2 63215 97.4170 151.3469 0004210 38.6316 321.5221 15.22802367 28169 TEVEL2-1 1 63217U 25052H 25258.95175708 .00016196 00000-0 69971-3 0 9995 2 63217 97.4145 151.5118 0004807 46.4120 313.7515 15.22555888 28205 TEVEL2-3 1 63218U 25052J 25258.95181166 .00016011 00000-0 69161-3 0 9998 2 63218 97.4149 151.5139 0004863 46.5613 313.6027 15.22564431 28204 TEVEL2-2 1 63219U 25052K 25258.62386250 .00015782 00000-0 68221-3 0 9994 2 63219 97.4148 151.1879 0004881 47.3955 312.7693 15.22542157 28153 TEVEL2-9 1 63237U 25052AD 25259.16416014 .00015633 00000-0 70117-3 0 9998 2 63237 97.4212 151.5380 0009263 43.7871 316.4097 15.21255292 28218 TEVEL2-7 1 63238U 25052AE 25259.17120606 .00015526 00000-0 69825-3 0 9994 2 63238 97.4216 151.5330 0009353 43.7178 316.4797 15.21165176 28216 TEVEL2-8 1 63239U 25052AF 25259.17523365 .00015841 00000-0 71291-3 0 9994 2 63239 97.4215 151.5257 0009338 43.8260 316.3715 15.21135739 28211 HYDRA-W 1 63490U 25052BL 25258.66934066 .00045509 00000-0 16224-2 0 9998 2 63490 97.4152 152.0673 0012170 40.9496 319.2656 15.28692889 28212 HADES-ICM (SO-125) 1 63492U 25052BN 25258.65591296 .00041758 00000-0 15263-2 0 9997 2 63492 97.4162 151.9477 0012589 43.3815 316.8413 15.27888085 28208